Bangkok (Don Mueang), Thailand

12:04 PM +07 on 四月 27, 2017 (GMT +0700)
Bangkok International

天気 に付いての歴史 VTBD - 三月, 2017

Change the Weather History Date:

月曜日, 三月 20, 2017

  Actual Average Record
Temperature  
平均温度 86 °F -  
最高温度 94 °F 94 °F 98 °F (2005)
最低温度 79 °F 77 °F 73 °F (2007)
Cooling Degree Days 22    
Growing Degree Days 36 (Base 50)    
Moisture  
露点温度 76 °F    
Average Humidity 71    
Maximum Humidity 94    
Minimum Humidity 43    
降水確率  
降水確率 0.00 インチ 0.07 インチ - ()
海面圧  
海面圧 29.84 インチ    
 
風速 7 Mph ()    
最大風速 16 Mph    
Max Gust Speed 23 Mph    
視程 6.2 マイル    
イベント      
Averages and records for this station are not official NWS values.
T = Trace of Precipitation, MM = Missing Value Source: Averaged Metar Reports

Daily Weather History Graph

Daily Weather History Graph

Search for Another Location

Airport or City:

Trip Planner

Search our weather history database for the weather conditions in past years. The results will help you decide how hot, cold, wet, or windy it might be!

Date:

天文

Mar. 20, 2017 入り
実時間 6:21 AM +07 6:28 PM +07
常用薄明 6:00 AM +07 6:49 PM +07
航海薄明 5:35 AM +07 7:14 PM +07
天文薄明 5:11 AM +07 7:39 PM +07
月の出なし 11:43 AM +07 (3/20)
可視光の長さ 12h 49m
可照時間
12h 06m
十八夜, 54% of the Moon is Illuminated
3月 20
十八夜
3月 20
第 4 四半期
3月 28
新しい
4月 4
上弦
4月 11
満月

Hourly Weather History & Observations

時間 (+07) 温度 体感気温(暑さ) 露点温度 湿度 気圧 視程 Wind Dir 風速 突風の速度 Precip イベント 現在の気象状況
12:00 AM 84.2 °F 94.1 °F 77.0 °F 79% 29.89 インチ 6.2 マイル 9.2 Mph - N/A   所により曇
12:30 AM 84.2 °F 94.1 °F 77.0 °F 79% 29.89 インチ 6.2 マイル 6.9 Mph - N/A   所により曇
1:00 AM 83 °F - 77 °F 76% 29.86 インチ 6 マイル 5.8 Mph - -   やや曇
1:00 AM 82.4 °F 90.9 °F 77.0 °F 84% 29.86 インチ 6.2 マイル 5.8 Mph - N/A   所により曇
1:30 AM 82.4 °F 90.9 °F 77.0 °F 84% 29.86 インチ 6.2 マイル 6.9 Mph - N/A   所により曇
2:00 AM 82.4 °F 90.9 °F 77.0 °F 84% 29.86 インチ 6.2 マイル 5.8 Mph - N/A   所により曇
2:30 AM 82.4 °F 90.9 °F 77.0 °F 84% 29.83 インチ 6.2 マイル 南南東 6.9 Mph - N/A   所により曇
3:00 AM 82.4 °F 90.9 °F 77.0 °F 84% 29.83 インチ 6.2 マイル 南東 3.5 Mph - N/A   所により曇
3:30 AM 80.6 °F 87.1 °F 77.0 °F 89% 29.83 インチ - 東南東 4.6 Mph - N/A  
4:00 AM 80 °F - 77 °F 87% 29.83 インチ 6 マイル 東南東 2.3 Mph - -  
4:00 AM 80.6 °F 87.1 °F 77.0 °F 89% 29.83 インチ - 東南東 2.3 Mph - N/A  
4:30 AM 80.6 °F 87.1 °F 77.0 °F 89% 29.83 インチ - 東南東 2.3 Mph - N/A  
5:00 AM 80.6 °F 87.1 °F 77.0 °F 89% 29.83 インチ - 東南東 3.5 Mph - N/A  
5:30 AM 80.6 °F 87.1 °F 77.0 °F 89% 29.86 インチ - 東南東 5.8 Mph - N/A  
6:00 AM 78.8 °F - 77.0 °F 94% 29.86 インチ 6.2 マイル 東南東 5.8 Mph - N/A   所により曇
6:30 AM 78.8 °F - 77.0 °F 94% 29.86 インチ 6.2 マイル 東南東 4.6 Mph - N/A   所により曇
7:00 AM 80 °F - 77 °F 87% 29.88 インチ 6 マイル 東南東 5.8 Mph - -   やや曇
7:00 AM 80.6 °F 87.1 °F 77.0 °F 89% 29.89 インチ 6.2 マイル 東南東 5.8 Mph - N/A   所により曇
7:30 AM 80.6 °F 88.1 °F 78.8 °F 94% 29.89 インチ 6.2 マイル 東南東 5.8 Mph - N/A   所により曇
8:00 AM 84.2 °F 96.1 °F 78.8 °F 84% 29.89 インチ 6.2 マイル 東南東 5.8 Mph - N/A   所により曇
8:30 AM 86.0 °F 99.3 °F 78.8 °F 79% 29.89 インチ 6.2 マイル 南東 5.8 Mph - N/A   所により曇
9:00 AM 86.0 °F 96.9 °F 77.0 °F 74% 29.89 インチ 6.2 マイル 6.9 Mph - N/A   所により曇
9:30 AM 89.6 °F 102.2 °F 77.0 °F 66% 29.92 インチ 6.2 マイル 南南東 8.1 Mph - N/A   所により曇
10:00 AM 91 °F - 73 °F 47% 29.91 インチ 6 マイル 南東 10.4 Mph - -   やや曇
10:00 AM 91.4 °F 102.5 °F 75.2 °F 59% 29.92 インチ 6.2 マイル 南東 10.4 Mph - N/A   所により曇
10:30 AM 89.6 °F 99.8 °F 75.2 °F 62% 29.89 インチ 6.2 マイル 南南西 9.2 Mph - N/A   やや曇
11:00 AM 93.2 °F 105.0 °F 75.2 °F 56% 29.89 インチ 6.2 マイル 南南東 8.1 Mph - N/A   やや曇
11:30 AM 93.2 °F 102.4 °F 73.4 °F 52% 29.89 インチ 6.2 マイル 南南東 8.1 Mph - N/A   やや曇
12:00 PM 93.2 °F 105.0 °F 75.2 °F 56% 29.86 インチ 6.2 マイル 8.1 Mph 23.0 Mph N/A   やや曇
1:00 PM 95 °F - 75 °F 43% 29.84 インチ 6 マイル 10.4 Mph - -   所により曇
1:00 PM 95.0 °F 107.4 °F 75.2 °F 53% 29.83 インチ 6.2 マイル 10.4 Mph - N/A   やや曇
1:30 PM 93.2 °F 102.4 °F 73.4 °F 52% 29.83 インチ 6.2 マイル 12.7 Mph - N/A   やや曇
2:00 PM 93.2 °F 105.0 °F 75.2 °F 56% 29.80 インチ 6.2 マイル 南南東 13.8 Mph - N/A   やや曇
2:30 PM 93.2 °F 105.0 °F 75.2 °F 56% 29.80 インチ 6.2 マイル 16.1 Mph - N/A   やや曇
3:00 PM 93.2 °F 100.5 °F 71.6 °F 49% 29.77 インチ 6.2 マイル 13.8 Mph - N/A   やや曇
3:30 PM 93.2 °F 107.2 °F 77.0 °F 59% 29.77 インチ 6.2 マイル 12.7 Mph - N/A   所により曇
4:00 PM 93 °F - 74 °F 46% 29.77 インチ 6 マイル 10.4 Mph - -   やや曇
4:00 PM 93.2 °F 105.0 °F 75.2 °F 56% 29.74 インチ 6.2 マイル 10.4 Mph - N/A   所により曇
4:30 PM 93.2 °F 102.4 °F 73.4 °F 52% 29.74 インチ 6.2 マイル 南南東 9.2 Mph - N/A   所により曇
5:00 PM 91.4 °F 100.1 °F 73.4 °F 55% 29.77 インチ 6.2 マイル 南南東 10.4 Mph - N/A   所により曇
5:30 PM 91.4 °F 100.1 °F 73.4 °F 55% 29.77 インチ 6.2 マイル 9.2 Mph - N/A   所により曇
6:00 PM 89.6 °F 96.2 °F 71.6 °F 55% 29.77 インチ 6.2 マイル 南南西 10.4 Mph - N/A   所により曇
6:30 PM 87.8 °F 95.6 °F 73.4 °F 62% 29.77 インチ 6.2 マイル 10.4 Mph - N/A   所により曇
7:00 PM 87 °F - 76 °F 61% 29.82 インチ 6 マイル 8.1 Mph - -   やや曇
7:00 PM 87.8 °F 97.6 °F 75.2 °F 66% 29.80 インチ 6.2 マイル 8.1 Mph - N/A   所により曇
7:30 PM 86.0 °F 95.1 °F 75.2 °F 70% 29.83 インチ 6.2 マイル 9.2 Mph - N/A   所により曇
8:00 PM 86.0 °F 96.9 °F 77.0 °F 74% 29.83 インチ 6.2 マイル 6.9 Mph - N/A   所により曇
8:30 PM 86.0 °F 96.9 °F 77.0 °F 74% 29.83 インチ 6.2 マイル 8.1 Mph - N/A   所により曇
9:00 PM 86.0 °F 96.9 °F 77.0 °F 74% 29.86 インチ 6.2 マイル 8.1 Mph - N/A   所により曇
9:30 PM 86.0 °F 96.9 °F 77.0 °F 74% 29.86 インチ 6.2 マイル 9.2 Mph - N/A   所により曇
10:00 PM 85 °F - 78 °F 73% 29.88 インチ 6 マイル 10.4 Mph - -   やや曇
10:00 PM 84.2 °F 94.1 °F 77.0 °F 79% 29.86 インチ 6.2 マイル 10.4 Mph - N/A   所により曇
10:30 PM 84.2 °F 96.1 °F 78.8 °F 84% 29.89 インチ 6.2 マイル 10.4 Mph - N/A   所により曇
11:00 PM 84.2 °F 96.1 °F 78.8 °F 84% 29.89 インチ 6.2 マイル 10.4 Mph - N/A   所により曇
11:30 PM 84.2 °F 96.1 °F 78.8 °F 84% 29.89 インチ 6.2 マイル 9.2 Mph - N/A   所により曇